星链-5443 (STARLINK-5443 )

导读

STARLINK-5443是美国SpaceX公司星链(Starlink)卫星互联网项目的一颗卫星,于2022年12月17日发射升空,作为星链星座的组成部分,它运行在近地轨道,为全球偏远地区提供低延迟高速宽带互联网服务,助力实现全球网络覆盖。 星链计划计划发射数万颗卫星构建卫星星座,STARLINK-5443的成功入轨,进一步扩充了星链星座的规模,推动项目向全球覆盖目标迈进,同时也为后续星链卫星技术迭代积累实践经验。

基本信息
目录编号:
54781
目录名称:
STARLINK-5443
国际标识:
2022-175Z
轨道中心:
EARTH
卫星名称:
星链-5443
卫星全名:
星链-5443 (STARLINK-5443 )
卫星状态:
在轨 (已飞行1276 天)
发射日期:
2022-12-17 UTC
国别 :
美国 (US)
星等 :
--
轨道信息
数据来源 国际轨道数据
星历时间: 2026-06-15T00:40:27+0800
11小时前
查看轨道信息
半长轴: 6917.917km
偏心率: 0.0001348
轨道倾角: 53.161°
近地点辐角 90.575°
升交点赤经 313.583°
平近点角 269.539°
近地点: 538.847km
远地点: 540.713km
周期: 95.438分钟
每日圈数: 15.088283
详细信息
固有亮度:
5
最大亮度:
2.5
卫星平台:
Starlink v1.5
覆盖范围:
全球
运营商:
太空探索技术公司
运营商所在国:
美国
制造商(研发单位):
太空探索技术公司
制造商所在国:
美国
使用方式:
暂无
卫星简介
星链(Starlink)计划是由太空探索技术公司(SpaceX)提出的一个巨型低轨卫星互联网星座项目,计划在2019年至2024年间在太空搭建由约1.2万颗卫星组成的“星链”网络,其中1584颗将部署在地球上空550千米处的近地轨道,并从2020年开始工作。该卫星仍在工作。
2D轨道图
3D轨道图
轨道高度分析图
轨道倾角分析图
轨道综合分析图
查看轨道综合分析图